Augusta, ME

6:20 PM EDT on May 20, 2018 (GMT -0400)
Augusta State

Weather History for KAUG - May, 2014

Change the Weather History Date:

Monday, May 12, 2014

  Actual Average Record
Temperature  
Mean Temperature 65 °F 54 °F  
Max Temperature 80 °F 64 °F 87 °F (1959)
Min Temperature 49 °F 43 °F 32 °F (2010)
Degree Days  
Heating Degree Days 0 11  
Month to date heating degree days 120 158  
Since 1 July heating degree days 7525 7162  
Cooling Degree Days 0 0  
Month to date cooling degree days 0 0  
Year to date cooling degree days 0 0  
Growing Degree Days 16 (Base 50)    
Moisture  
Dew Point 36 °F    
Average Humidity 41    
Maximum Humidity 63    
Minimum Humidity 18    
Precipitation  
Precipitation 0.00 in 0.11 in 2.15 in (1989)
Month to date precipitation 0.88 1.44  
Year to date precipitation 11.44 13.64  
Sea Level Pressure  
Sea Level Pressure 30.04 in    
Wind  
Wind Speed 9 mph (NW)    
Max Wind Speed 23 mph    
Max Gust Speed 28 mph    
Visibility 10 miles    
Events      
T = Trace of Precipitation, MM = Missing Value Source: NWS Daily Summary

Daily Weather History Graph

Daily Weather History Graph

Search for Another Location

Airport or City:

Astronomy

May. 12, 2014 Rise Set
Actual Time 5:15 AM EDT 7:56 PM EDT
Civil Twilight 4:42 AM EDT 8:29 PM EDT
Nautical Twilight 4:00 AM EDT 9:11 PM EDT
Astronomical Twilight 3:12 AM EDT 10:00 PM EDT
Moon 5:45 PM EDT (5/12) 3:58 AM EDT (5/12)
Length of Visible Light 15h 47m
Length of Day
14h 40m
Waxing Gibbous, 95% of the Moon is Illuminated
May 12
Waxing Gibbous
May 14
Full
May 21
Last Quarter
May 28
New
Jun 5
First Quarter

Hourly Weather History & Observations

Time (EDT) Temp. Dew Point Humidity Pressure Visibility Wind Dir Wind Speed Gust Speed Precip Events Conditions
12:53 AM 55.0 °F 35.1 °F 47% 29.98 in 10.0 mi North 3.5 mph - N/A   Clear
1:53 AM 54.0 °F 36.0 °F 51% 29.99 in 10.0 mi Calm Calm - N/A   Scattered Clouds
2:53 AM 55.9 °F 35.1 °F 45% 29.99 in 10.0 mi SW 5.8 mph - N/A   Clear
3:53 AM 57.9 °F 35.1 °F 42% 29.99 in 10.0 mi West 4.6 mph - N/A   Clear
4:53 AM 55.0 °F 35.1 °F 47% 30.00 in 10.0 mi West 3.5 mph - N/A   Clear
5:53 AM 53.1 °F 36.0 °F 52% 30.02 in 10.0 mi Calm Calm - N/A   Clear
6:53 AM 52.0 °F 39.9 °F 63% 30.04 in 10.0 mi ESE 4.6 mph - N/A   Clear
7:53 AM 55.0 °F 41.0 °F 59% 30.05 in 10.0 mi SSE 4.6 mph - N/A   Clear
8:53 AM 63.0 °F 42.1 °F 46% 30.05 in 10.0 mi South 4.6 mph - N/A   Clear
9:53 AM 69.8 °F 37.4 °F 31% 30.04 in 10.0 mi West 9.2 mph - N/A   Clear
10:53 AM 72.0 °F 35.1 °F 26% 30.03 in 10.0 mi WSW 10.4 mph 18.4 mph N/A   Clear
11:53 AM 73.0 °F 36.0 °F 26% 30.02 in 10.0 mi West 8.1 mph 18.4 mph N/A   Clear
12:53 PM 75.9 °F 36.0 °F 23% 30.00 in 10.0 mi NW 9.2 mph - N/A   Partly Cloudy
1:53 PM 78.1 °F 35.1 °F 21% 29.99 in 10.0 mi West 10.4 mph - N/A   Partly Cloudy
2:53 PM 79.0 °F 34.0 °F 20% 29.97 in 10.0 mi West 15.0 mph 20.7 mph N/A   Partly Cloudy
3:53 PM 80.1 °F 34.0 °F 19% 29.96 in 10.0 mi NW 12.7 mph 21.9 mph N/A   Clear
4:53 PM 78.1 °F 32.0 °F 19% 29.97 in 10.0 mi NW 17.3 mph 24.2 mph N/A   Clear
5:53 PM 75.0 °F 34.0 °F 22% 30.00 in 10.0 mi NNW 20.7 mph 26.5 mph N/A   Clear
6:53 PM 73.0 °F 30.9 °F 21% 30.03 in 10.0 mi North 16.1 mph 24.2 mph N/A   Clear
7:53 PM 68.0 °F 30.0 °F 24% 30.09 in 10.0 mi North 15.0 mph 25.3 mph N/A   Clear
8:53 PM 59.0 °F 44.1 °F 58% 30.13 in 10.0 mi ENE 12.7 mph - N/A   Clear
9:53 PM 55.9 °F 43.0 °F 62% 30.15 in 10.0 mi NE 10.4 mph - N/A   Clear
10:53 PM 53.6 °F 39.2 °F 58% 30.17 in 10.0 mi NE 10.4 mph - N/A   Clear
11:53 PM 51.1 °F 39.0 °F 63% 30.19 in 10.0 mi NE 9.2 mph - N/A   Clear